{"data":{"norad_id":47691,"epoch":"2026-09-20T21:30:03.578400Z","epoch_age_seconds":47796,"freshness":"FRESH","line1":"1 47691U 21014A   26263.89587475 -.00000037  00000+0  80566-4 0  9996","line2":"2 47691  63.4049 311.8732 0185288   0.9522 359.1822 13.45454061273656","mean_motion":13.45454061,"eccentricity":0.0185288,"inclination_deg":63.4049,"raan_deg":311.8732,"arg_perigee_deg":0.9522,"mean_anomaly_deg":359.1822,"bstar":8.0566e-5,"rev_number":27365,"period_min":107.027065564,"perigee_km":950.67338831208,"apogee_km":1227.3887151051,"semimajor_km":7467.1680517086,"source":"CELESTRAK","updated_at":"2026-09-21T09:00:07.561563Z"}}